Green Bay, WI

7:36 AM CST on November 23, 2017 (GMT -0600)
Austin Straubel International

Weather History for KGRB - September, 2013

Change the Weather History Date:

Tuesday, September 17, 2013

  Actual Average Record
Temperature  
Mean Temperature 52 °F 59 °F  
Max Temperature 67 °F 70 °F 90 °F (1955)
Min Temperature 37 °F 48 °F 32 °F (1959)
Degree Days  
Heating Degree Days 13 7  
Month to date heating degree days 83 81  
Since 1 July heating degree days 123 144  
Cooling Degree Days 0 1  
Month to date cooling degree days 43 27  
Year to date cooling degree days 521 389  
Growing Degree Days 2 (Base 50)    
Moisture  
Dew Point 47 °F    
Average Humidity 79    
Maximum Humidity 100    
Minimum Humidity 58    
Precipitation  
Precipitation 0.03 in 0.10 in 2.81 in (1914)
Month to date precipitation 2.29 1.72  
Year to date precipitation 26.28 22.12  
Snow  
Snow 0.00 in 0.00 in 0.00 in ()
Month to date snowfall 0.0 0.0  
Since 1 July snowfall 0.0 0.0  
Since 1 September snowfall 0.0 0.0  
Snow Depth 0.00 in    
Sea Level Pressure  
Sea Level Pressure 30.28 in    
Wind  
Wind Speed 6 mph (SSE)    
Max Wind Speed 16 mph    
Max Gust Speed 21 mph    
Visibility 10 miles    
Events      
T = Trace of Precipitation, MM = Missing Value Source: NWS Daily Summary

Daily Weather History Graph

Daily Weather History Graph

Search for Another Location

Airport or City:

Trip Planner

Search our weather history database for the weather conditions in past years. The results will help you decide how hot, cold, wet, or windy it might be!

Date:

Astronomy

Sep. 17, 2013 Rise Set
Actual Time 6:34 AM CDT 6:58 PM CDT
Civil Twilight 6:04 AM CDT 7:27 PM CDT
Nautical Twilight 5:30 AM CDT 8:02 PM CDT
Astronomical Twilight 4:54 AM CDT 8:37 PM CDT
Moon 5:47 PM CDT (9/17) 4:25 AM CDT (9/17)
Length of Visible Light 13h 23m
Length of Day
12h 24m
Waxing Gibbous, 96% of the Moon is Illuminated
Sep 17
Waxing Gibbous
Sep 19
Full
Sep 26
Last Quarter
Oct 4
New
Oct 11
First Quarter

Hourly Weather History & Observations

Time (CDT) Temp. Windchill Dew Point Humidity Pressure Visibility Wind Dir Wind Speed Gust Speed Precip Events Conditions
12:53 AM 39.0 °F 36.8 °F 37.9 °F 96% 30.38 in 9.0 mi NW 3.5 mph - N/A   Clear
1:53 AM 39.0 °F - 37.9 °F 96% 30.38 in 9.0 mi Calm Calm - N/A   Clear
2:53 AM 37.9 °F 35.5 °F 37.0 °F 97% 30.38 in 10.0 mi West 3.5 mph - N/A   Clear
3:53 AM 37.9 °F - 37.0 °F 97% 30.37 in 10.0 mi Calm Calm - N/A   Clear
4:53 AM 37.0 °F - 37.0 °F 100% 30.37 in 10.0 mi Calm Calm - N/A   Clear
5:53 AM 37.0 °F - 37.0 °F 100% 30.37 in 10.0 mi Calm Calm - N/A   Clear
6:53 AM 37.0 °F - 37.0 °F 100% 30.37 in 10.0 mi Calm Calm - N/A   Clear
7:53 AM 45.0 °F - 43.0 °F 93% 30.37 in 10.0 mi Calm Calm - N/A   Clear
8:53 AM 52.0 °F - 48.0 °F 86% 30.37 in 10.0 mi Calm Calm - N/A   Partly Cloudy
9:53 AM 59.0 °F - 51.1 °F 75% 30.35 in 10.0 mi SSE 4.6 mph - N/A   Mostly Cloudy
10:53 AM 61.0 °F - 52.0 °F 72% 30.33 in 10.0 mi South 6.9 mph - N/A   Partly Cloudy
11:53 AM 63.0 °F - 51.1 °F 65% 30.32 in 10.0 mi South 6.9 mph - N/A   Mostly Cloudy
12:53 PM 66.0 °F - 51.1 °F 59% 30.29 in 10.0 mi South 9.2 mph 16.1 mph N/A   Mostly Cloudy
1:53 PM 66.9 °F - 52.0 °F 59% 30.26 in 10.0 mi South 10.4 mph - N/A   Scattered Clouds
2:53 PM 64.9 °F - 53.1 °F 65% 30.23 in 10.0 mi SSE 8.1 mph - N/A   Mostly Cloudy
3:53 PM 64.9 °F - 54.0 °F 68% 30.21 in 10.0 mi SE 11.5 mph - N/A   Partly Cloudy
4:53 PM 64.0 °F - 53.1 °F 67% 30.20 in 10.0 mi SE 10.4 mph - N/A   Scattered Clouds
5:53 PM 61.0 °F - 53.1 °F 75% 30.19 in 10.0 mi SE 15.0 mph - N/A   Clear
6:53 PM 59.0 °F - 53.1 °F 81% 30.17 in 10.0 mi SSE 8.1 mph - N/A   Clear
7:53 PM 57.0 °F - 53.1 °F 87% 30.17 in 10.0 mi SSE 8.1 mph - N/A   Clear
8:53 PM 57.9 °F - 53.1 °F 84% 30.16 in 10.0 mi SSE 9.2 mph - N/A   Clear
9:53 PM 55.9 °F - 52.0 °F 87% 30.15 in 10.0 mi South 8.1 mph - N/A   Clear
10:53 PM 55.0 °F - 52.0 °F 89% 30.14 in 10.0 mi South 5.8 mph - N/A   Clear
11:53 PM 57.0 °F - 53.1 °F 87% 30.12 in 10.0 mi South 4.6 mph - N/A   Scattered Clouds